{"data":{"norad_id":63766,"intl_designator":"2025-089R","name":"STARLINK-33824","alt_names":[],"object_type":"PAYLOAD","status":"ACTIVE","operator":null,"country":"US","launch_date":"2025-04-29","launch_site_code":"AFETR","launch_vehicle":null,"mission":null,"orbit_class":"UNKNOWN","rcs_meters":null,"size_class":null,"mass_kg":null,"dimensions":null,"purposes":["comms"],"wikipedia_slug":null,"has_3d_model":false,"image_url":null,"decayed_at":null,"tle_current":{"epoch":"2026-05-24T20:49:26.942016Z","epoch_age_seconds":76737,"freshness":"FRESH","line1":"1 63766U 25089R   26144.86767294  .00011712  00000+0  43417-3 0  9991","line2":"2 63766  43.0013 335.3992 0001956 261.6743  98.3887 15.27601870 60607","mean_motion":15.2760187,"eccentricity":0.0001956,"inclination_deg":43.0013,"raan_deg":335.3992,"arg_perigee_deg":261.6743,"mean_anomaly_deg":98.3887,"bstar":0.00043417,"rev_number":6060,"period_min":94.265399138324,"perigee_km":481.6415749819,"apogee_km":484.3256453646,"semimajor_km":6861.1206101732,"source":"CELESTRAK","updated_at":"2026-05-25T13:38:20.106287Z"}}}